Weather History for Redding, CA

Change the Weather History Date:

Sunday, September 2, 2012

  Actual Average Record
Temperature  
Mean Temperature 75 °F -  
Max Temperature 98 °F 93 °F 112 °F (1998)
Min Temperature 52 °F 60 °F 50 °F (1999)
Degree Days  
Heating Degree Days 0    
Month to date heating degree days 0  
Cooling Degree Days 10    
Month to date cooling degree days 16  
Year to date cooling degree days 1520  
Growing Degree Days 25 (Base 50)    
Moisture  
Dew Point 42 °F    
Average Humidity 33    
Maximum Humidity 55    
Minimum Humidity 11    
Precipitation  
Precipitation 0.00 in 0.01 in 0.14 in (2000)
Month to date precipitation 0.00 0.02  
Year to date precipitation 17.29 21.15  
Since 1 July precipitation T 0.29  
Sea Level Pressure  
Sea Level Pressure 29.90 in    
Wind  
Wind Speed 2 mph (SSE)    
Max Wind Speed 15 mph    
Max Gust Speed 18 mph    
Visibility 8 miles    
Events      
T = Trace of Precipitation, MM = Missing Value Source: NWS Daily Summary

Daily Weather History Graph

Daily Weather History Graph

Search for Another Location

Airport:

Trip Planner

Search our weather history database for the weather conditions in past years. The results will help you decide how hot, cold, wet, or windy it might be!

Date:

Astronomy

Sep. 02, 2012 Rise Set
Actual Time 6:37 AM PDT 7:38 PM PDT
Civil Twilight 6:10 AM PDT 8:06 PM PDT
Nautical Twilight 5:36 AM PDT 8:39 PM PDT
Astronomical Twilight 5:02 AM PDT 9:14 PM PDT
Moon 8:27 PM PDT (9/2) 8:52 AM PDT (9/2)
Length of Visible Light 13h 56m
Length of Day
13h 00m
Waning Gibbous, 95% of the Moon is Illuminated
Sep 2
Waning Gibbous
Sep 8
Last Quarter
Sep 15
New
Sep 22
First Quarter
Sep 29
Full

Hourly Weather History & Observations

Time (PDT) Temp. Dew Point Humidity Pressure Visibility Wind Dir Wind Speed Gust Speed Precip Events Conditions
12:53 AM 60.8 °F 37.4 °F 42% 29.97 in 10.0 mi Calm Calm - N/A   Clear
1:53 AM 60.1 °F 37.9 °F 44% 29.96 in 10.0 mi Calm Calm - N/A   Partly Cloudy
2:53 AM 57.9 °F 39.0 °F 49% 29.95 in 10.0 mi Calm Calm - N/A   Clear
3:53 AM 55.0 °F 37.9 °F 53% 29.95 in 10.0 mi Calm Calm - N/A   Overcast
4:53 AM 55.0 °F 39.0 °F 55% 29.94 in 10.0 mi Calm Calm - N/A   Overcast
5:53 AM 55.0 °F 37.9 °F 53% 29.94 in 10.0 mi Calm Calm - N/A   Overcast
6:08 AM 53.6 °F 39.2 °F 58% 29.95 in 10.0 mi Calm Calm - N/A   Overcast
6:53 AM 53.1 °F 37.9 °F 57% 29.94 in 10.0 mi Calm Calm - N/A   Overcast
7:42 AM 55.4 °F 39.2 °F 54% 29.95 in 10.0 mi Calm Calm - N/A   Clear
7:53 AM 57.0 °F 39.0 °F 51% 29.94 in 10.0 mi Calm Calm - N/A   Clear
8:53 AM 62.1 °F 37.0 °F 39% 29.94 in 10.0 mi Calm Calm - N/A   Clear
9:53 AM 70.0 °F 39.0 °F 32% 29.94 in 10.0 mi Calm Calm - N/A   Clear
10:53 AM 77.0 °F 42.1 °F 29% 29.92 in 8.0 mi Calm Calm - N/A   Clear
11:53 AM 84.0 °F 43.0 °F 24% 29.90 in 5.0 mi South 4.6 mph - N/A   Haze
12:53 PM 90.0 °F 42.1 °F 19% 29.87 in 3.0 mi South 5.8 mph - N/A   Haze
1:53 PM 93.0 °F 42.1 °F 17% 29.86 in 3.0 mi Variable 5.8 mph - N/A   Haze
2:53 PM 96.1 °F 39.9 °F 14% 29.83 in 3.0 mi SSE 6.9 mph - N/A   Haze
3:53 PM 98.1 °F 36.0 °F 11% 29.81 in 8.0 mi SSE 9.2 mph - N/A   Haze
4:53 PM 96.1 °F 43.0 °F 16% 29.81 in 6.0 mi South 12.7 mph - N/A   Haze
5:53 PM 93.9 °F 42.1 °F 17% 29.81 in 7.0 mi South 12.7 mph - N/A   Haze
6:53 PM 88.0 °F 46.0 °F 23% 29.81 in 8.0 mi SSE 8.1 mph - N/A   Haze
7:53 PM 80.1 °F 50.0 °F 35% 29.83 in 9.0 mi SSE 5.8 mph - N/A   Haze
8:53 PM 77.0 °F 51.1 °F 40% 29.85 in 9.0 mi Calm Calm - N/A   Haze
9:53 PM 72.0 °F 51.1 °F 48% 29.87 in 10.0 mi Calm Calm - N/A   Haze
10:53 PM 70.0 °F 51.1 °F 51% 29.89 in 10.0 mi Calm Calm - N/A   Haze
11:53 PM 70.0 °F 50.0 °F 49% 29.90 in 9.0 mi NNE 3.5 mph - N/A   Haze